Погода в Николо-Горе

Россия / Ярославская область     58°25′52″N   40°07′13″E
темп.,
°C
ветер,
м/с
пор.,
м/с
влажн.,
%
обл.,
%
осадки,
мм/ч
давл.,
гПа
погр.,
м
17 апреля, сб
сб1700:00+4всв412795 0.0 1029368
03:00+3всв3118461 0.0 1030287
06:00+2всв412815 0.0 1030311
09:00+8в59535 0.0 1030659
12:00+11в563928 0.0 10291110
15:00+13всв45375 0.0 10281368
18:00+11всв47491 0.0 1027524
21:00+6всв310710 0.0 1027239
18 апреля, вс
вс1800:00+5всв39780 0.0 1027204
03:00+4св3108160 0.0 1028233
06:00+3св31080100 0.0 1028284
09:00+7всв4959100 0.0 1028627
12:00+10всв5850100 0.0 10271247
15:00+10всв4853100 0.0 10271475
18:00+8всв5868100 0.0 1029890
21:00+4всв41172100 0.0 1030735
19 апреля, пн
пн1900:00+3всв31077100 0.0 1030577
03:00+1всв41073100 0.0 1031413
06:000всв4117680 0.0 1031455
09:00+4в59510 0.0 1032972
12:00+7в68385 0.0 10311559
15:00+8в573822 0.0 10311861
18:00+7в47445 0.0 10311731
21:00+3в311610 0.0 1031341
20 апреля, вт
вт2000:00+2в412660 0.0 1032437
03:000в411707 0.0 1031375
06:000в412665 0.0 1031452
09:00+5вюв5104664 0.0 1030809
12:00+8вюв6944100 0.0 10291487
15:00+10вюв694192 0.0 10271886
18:00+9вюв5104891 0.0 10251527
21:00+6вюв41256100 0.0 1025606
21 апреля, ср
ср2100:00+4в51355100 0.0 1023728
03:00+3вюв61556100 0.0 1020803
06:00+3вюв71655100 0.0 1016984
09:00+2вюв71671100 0.3 10141098
12:00+2вюв71695100 3.2 1013811
15:00+2вюв71596100 3.9 1011955
18:00+3вюв61696100 1.0 10091073
21:00+5юв71493100 2.1 10081140